| time (UTC) | temp F | wind direction | speed knots | gust knots | rain 1hr in | rain 24hr in | rain mn in | humidity % | barometer mb |
| 20260503015743 | 43 | 360 | 3.5 | 6.1 | 0.00 | 0.00 | 0.00 | 99 | 1021.0 |
| 20260503012746 | 43 | 360 | 2.6 | 6.1 | 0.00 | 0.00 | 0.00 | 99 | 1021.1 |
| 20260503005744 | 43 | 360 | 0.0 | 5.2 | 0.00 | 0.00 | 0.00 | 99 | 1021.1 |
| 20260503002743 | 44 | 360 | 0.0 | 4.3 | 0.00 | 0.00 | 0.00 | 99 | 1021.1 |
| 20260502232748 | 45 | 360 | 0.0 | 5.2 | 0.00 | 0.00 | 0.00 | 99 | 1021.1 |
| 20260502225745 | 45 | 360 | 2.6 | 7.0 | 0.00 | 0.00 | 0.00 | 99 | 1021.2 |
| 20260502222744 | 45 | 360 | 5.2 | 8.7 | 0.00 | 0.00 | 0.00 | 99 | 1021.2 |
| 20260502215744 | 46 | 360 | 5.2 | 10.4 | 0.00 | 0.00 | 0.02 | 99 | 1021.2 |
| 20260502205745 | 46 | 360 | 4.3 | 7.0 | 0.00 | 0.00 | 0.02 | 99 | 1021.2 |
| 20260502202745 | 47 | 360 | 3.5 | 7.8 | 0.00 | 0.00 | 0.02 | 99 | 1021.2 |
| 20260502195745 | 48 | 360 | 4.3 | 7.0 | 0.00 | 0.00 | 0.02 | 99 | 1021.1 |
| 20260502192746 | 49 | 360 | 2.6 | 7.0 | 0.00 | 0.00 | 0.02 | 99 | 1020.7 |
| 20260502185746 | 49 | 360 | 4.3 | 7.8 | 0.00 | 0.00 | 0.02 | 99 | 1020.7 |
| 20260502182746 | 50 | 360 | 2.6 | 7.8 | 0.00 | 0.00 | 0.02 | 99 | 1020.7 |
| 20260502162745 | 53 | 360 | 2.6 | 7.0 | 0.00 | 0.00 | 0.02 | 77 | 1020.6 |
| 20260502112745 | 50 | 360 | 0.9 | 2.6 | 0.00 | 0.00 | 0.00 | 59 | 1022.2 |
| 20260502105747 | 51 | 45 | 0.0 | 1.7 | 0.00 | 0.00 | 0.00 | 32 | 1022.2 |
| 20260502065748 | 51 | 90 | 0.9 | 4.3 | 0.00 | 0.00 | 0.00 | 10 | 1023.1 |
| 20260502062745 | 54 | 135 | 0.0 | 1.7 | 0.00 | 0.00 | 0.00 | 10 | 1023.2 |
| 20260502055745 | 56 | 135 | 0.0 | 2.6 | 0.00 | 0.00 | 0.00 | 10 | 1023.0 |
| 20260502052744 | 51 | 360 | 0.0 | 2.6 | 0.00 | 0.00 | 0.00 | 10 | 1023.2 |
| 20260502045745 | 53 | 135 | 0.0 | 0.9 | 0.00 | 0.00 | 0.00 | 10 | 1023.6 |
| 20260502042744 | 46 | 135 | 1.7 | 2.6 | 0.00 | 0.00 | 0.00 | 10 | 1023.4 |
| 20260502035748 | 44 | 135 | 0.0 | 0.9 | 0.00 | 0.00 | 0.00 | 10 | 1024.3 |
| 20260502032748 | 46 | 135 | 0.9 | 2.6 | 0.00 | 0.00 | 0.00 | 10 | 1024.1 |
| 20260502025747 | 45 | 135 | 0.9 | 2.6 | 0.00 | 0.00 | 0.00 | 10 | 1024.3 |